Device Time, Absolute Throttle Position B(%),Accelerator PedalPosition D(%),Accelerator PedalPosition E(%),Air Fuel Ratio(Commanded)(:1),Air Fuel Ratio(Measured)(:1),Engine Coolant Temperature(°C),Engine Load(%),Engine Load(Absolute)(%),Engine Oil Temperature(°C),Engine RPM(rpm),Fuel Rail Pressure(psi),Fuel Trim Bank 1 Long Term(%),Fuel Trim Bank 1 Short Term(%),Intake Air Temperature(°C),Intake Manifold Pressure(psi),Mass Air Flow Rate(cfm),Relative Accelerator Pedal Position(%),Relative Throttle Position(%),Speed (OBD)(mph),Throttle Position(Manifold)(%),Timing Advance(°),Turbo Boost & Vacuum Gauge(psi)
25-Nov-2021 16:25:52.125,-,-,-,-,-,64,-,-,-,807.25,-,-,-,23,6.52669811,26.31015968,-,-,0,13.72549057,-,-7.97707558
25-Nov-2021 16:25:53.121,-,-,-,-,14.65827847,65,30.98039246,-,-,804.5,-,-,0.78125,23,6.52669811,26.06951904,-,-,0,13.72549057,15,-7.97707558
25-Nov-2021 16:25:54.130,30.98039246,13.72549057,13.33333397,14.67039204,14.68788719,65,29.41176605,20.3921566,39,803,580.15093994,1.5625,0.78125,23,6.67173576,26.31015968,0,2.35294127,0,13.72549057,14,-7.83203793
25-Nov-2021 16:25:55.123,30.98039246,13.72549057,13.33333397,14.66994286,14.68160725,65,30.98039246,20.3921566,39,799,580.15093994,1.5625,0.78125,23,6.52669811,26.71122932,0,2.35294127,0,13.72549057,16,-7.97707558
25-Nov-2021 16:25:56.124,30.98039246,13.72549057,13.33333397,14.67039204,14.65783119,65,30.98039246,20.7843132,39,796.75,571.44866943,1.5625,0.78125,23,6.81677389,25.8288765,0,2.35294127,0,13.72549057,16,-7.6869998
25-Nov-2021 16:25:57.128,30.98039246,13.72549057,13.33333397,14.67039204,14.68115807,65,31.37254906,20.7843132,39,795,610.60888672,1.5625,0.78125,23,6.52669811,25.8288765,0,2.35294127,0,13.72549057,13.5,-7.97707558
25-Nov-2021 16:25:58.123,30.98039246,13.72549057,13.33333397,14.67039204,14.69371891,65,29.80392265,20.7843132,39,798.5,585.95245361,1.5625,0.78125,23,6.67173576,26.22994614,0,2.35294127,0,13.72549057,13,-7.83203793
25-Nov-2021 16:25:59.129,30.98039246,13.72549057,13.33333397,14.67039204,14.69371891,65,30.98039246,20.3921566,39,809,585.95245361,1.5625,0.78125,23,6.67173576,25.8288765,0,2.35294127,0,13.72549057,14,-7.83203793
25-Nov-2021 16:26:00.120,30.98039246,13.72549057,13.33333397,14.67039204,14.65110207,65,30.98039246,20.3921566,40,804.5,604.80737305,1.5625,0.78125,23,6.38166046,26.55080223,0,2.35294127,0,13.72549057,15,-8.12211323
25-Nov-2021 16:26:01.123,30.98039246,13.72549057,13.33333397,14.66994286,14.63360596,65,30.98039246,20.3921566,40,804.5,604.80737305,1.5625,0.78125,23,6.52669811,26.55080223,0,2.35294127,0,13.72549057,15,-7.97707558
25-Nov-2021 16:26:02.121,30.98039246,13.72549057,13.33333397,14.67039204,14.69955158,65,30.19607925,20.7843132,40,808.25,555.49450684,1.5625,0.78125,23,6.67173576,26.47058678,0,2.35294127,0,13.72549057,14,-7.83203793
25-Nov-2021 16:26:03.129,30.98039246,13.72549057,13.33333397,14.67039204,14.62777328,65,29.80392265,20.7843132,40,798.5,583.05169678,1.5625,0.78125,23,6.67173576,26.79144287,0,2.35294127,0,13.72549057,14,-7.83203793
25-Nov-2021 16:26:04.123,30.98039246,13.72549057,13.33333397,14.67039204,14.65693378,65,29.80392265,20.3921566,40,807,585.95245361,1.5625,0.78125,23,6.52669811,25.9893055,0,2.35294127,0,13.33333397,14,-7.97707558
25-Nov-2021 16:26:05.129,30.98039246,13.33333397,12.94117641,14.67039204,14.66949463,65,30.19607925,20.7843132,40,802.25,590.30358887,1.5625,0.78125,23,6.52669811,25.8288765,0,2.35294127,0,13.72549057,13,-7.97707558
25-Nov-2021 16:26:06.124,30.98039246,13.33333397,12.94117641,14.67039204,14.6690464,65,30.58823586,20.3921566,40,800.25,590.30358887,1.5625,0.78125,23,6.52669811,25.74866295,0,2.35294127,0,13.72549057,13.5,-7.97707558
25-Nov-2021 16:26:07.122,30.98039246,13.33333397,12.94117641,14.67039204,14.69327068,65,29.80392265,20.3921566,40,799.5,581.60131836,1.5625,0.78125,23,6.67173576,25.74866295,0,2.35294127,0,13.72549057,13.5,-7.83203793
25-Nov-2021 16:26:08.121,30.98039246,13.33333397,12.94117641,14.67039204,14.68788719,66,29.80392265,20.3921566,40,804.75,587.40283203,1.5625,0.78125,23,6.67173576,25.50802231,0,2.35294127,0,13.72549057,13.5,-7.83203793
25-Nov-2021 16:26:09.125,30.98039246,13.33333397,12.94117641,14.67039204,14.68833637,66,30.19607925,20,40,807.25,588.85321045,1.5625,0.78125,23,6.67173576,25.50802231,0,2.35294127,0,13.72549057,13.5,-7.83203793
25-Nov-2021 16:26:10.124,30.98039246,13.33333397,12.94117641,14.66994286,14.70986843,66,29.01960754,20,40,808,585.95245361,1.5625,0.78125,23,6.38166046,25.58823586,0,2.35294127,0,13.72549057,13.5,-8.12211323
25-Nov-2021 16:26:11.124,30.98039246,13.33333397,12.94117641,14.67039204,14.67577457,66,29.01960754,20.3921566,40,808,607.70812988,1.5625,0.78125,23,6.38166046,25.58823586,0,2.35294127,0,13.72549057,13.5,-8.12211323
25-Nov-2021 16:26:12.123,30.98039246,13.33333397,12.94117641,14.67039204,14.67532539,66,28.62745094,20.3921566,40,806.5,591.75396729,1.5625,0.78125,23,6.52669811,26.06951904,0,2.35294127,0,13.72549057,13.5,-7.97707558
25-Nov-2021 16:26:13.129,30.98039246,13.33333397,12.94117641,14.67039204,14.64482021,66,29.80392265,20.7843132,40,788,554.04418945,1.5625,0.78125,23,6.67173576,26.31015968,0,2.35294127,0,13.72549057,14,-7.83203793
25-Nov-2021 16:26:14.124,30.98039246,13.33333397,12.94117641,14.67039204,14.66366291,66,29.41176605,20,40,796,554.04418945,1.5625,0.78125,23,6.67173576,25.26737976,0,2.35294127,0,13.72549057,14,-7.83203793
25-Nov-2021 16:26:15.127,30.98039246,13.33333397,12.94117641,14.67039204,14.6587286,66,29.41176605,20.3921566,41,796,584.5020752,1.5625,0.78125,23,6.52669811,25.26737976,0,2.35294127,0,13.72549057,12,-7.97707558
25-Nov-2021 16:26:16.124,30.98039246,13.33333397,12.94117641,14.67039204,14.65693378,66,30.19607925,20.3921566,41,799.75,610.60888672,1.5625,0.78125,23,6.52669811,25.74866295,0,2.35294127,0,13.72549057,15,-7.97707558
25-Nov-2021 16:26:17.119,30.98039246,13.33333397,12.94117641,14.67039204,14.6690464,66,29.80392265,20.3921566,41,792.25,610.60888672,1.5625,0.78125,23,6.52669811,26.06951904,0,2.35294127,0,13.72549057,15,-7.97707558
25-Nov-2021 16:26:18.121,30.98039246,13.33333397,12.94117641,14.67039204,14.65110207,66,29.80392265,20.3921566,41,792.25,577.25018311,1.5625,0.78125,23,6.52669811,26.06951904,0,2.35294127,0,13.72549057,15.5,-7.97707558
25-Nov-2021 16:26:19.122,30.98039246,13.33333397,12.94117641,14.66994286,14.65110207,66,29.80392265,20,41,820.25,587.40283203,1.5625,0.78125,23,6.52669811,25.6684494,0,2.35294127,0,13.72549057,12.5,-7.97707558
25-Nov-2021 16:26:20.120,30.98039246,13.33333397,12.94117641,14.67039204,14.68115807,66,31.76470566,20.3921566,41,800.75,574.34942627,1.5625,0.78125,23,6.52669811,25.6684494,0,2.35294127,0,13.72549057,14,-7.97707558
25-Nov-2021 16:26:21.125,30.98039246,13.33333397,12.94117641,14.67039204,14.65783119,66,31.76470566,20.3921566,41,800.75,600.45623779,1.5625,0.78125,23,6.52669811,25.6684494,0,2.35294127,0,13.72549057,13,-7.97707558
25-Nov-2021 16:26:22.122,30.98039246,13.33333397,12.94117641,14.67039204,14.67532539,66,29.80392265,20.3921566,41,809.5,597.55548096,1.5625,0.78125,23,6.67173576,25.8288765,0,2.35294127,0,13.72549057,12.5,-7.83203793
25-Nov-2021 16:26:23.134,30.98039246,13.33333397,12.94117641,14.66994286,14.66366291,66,29.01960754,20.7843132,41,791,607.70812988,1.5625,0.78125,23,6.52669811,25.6684494,0,2.35294127,0,13.72549057,13.5,-7.97707558
25-Nov-2021 16:26:24.124,30.98039246,13.33333397,12.94117641,14.66994286,14.70897198,66,30.58823586,20.3921566,41,796.5,607.70812988,1.5625,0.78125,23,6.52669811,26.22994614,0,2.35294127,0,13.72549057,14.5,-7.97707558
25-Nov-2021 16:26:25.119,30.58823586,13.33333397,12.94117641,14.66994286,14.68654156,67,30.58823586,20.3921566,41,796.5,577.25018311,1.5625,0.78125,23,6.52669811,26.22994614,0,2.35294127,0,13.72549057,14.5,-7.97707558
25-Nov-2021 16:26:26.123,30.58823586,13.33333397,12.94117641,14.66994286,14.60354805,67,29.41176605,20.3921566,41,812,577.25018311,1.5625,0.78125,24,6.52669811,26.47058678,0,2.35294127,0,13.33333397,14.5,-7.97707558
25-Nov-2021 16:26:27.121,30.98039246,13.33333397,12.94117641,14.67039204,14.65783119,67,29.41176605,20.3921566,41,812,612.05926514,1.5625,0.78125,24,6.52669811,26.06951904,0,2.35294127,0,13.33333397,14.5,-7.97707558
25-Nov-2021 16:26:28.121,30.98039246,13.33333397,12.94117641,14.67039204,14.6690464,67,29.41176605,20,41,812,587.40283203,1.5625,0.78125,24,6.38166046,26.14973259,0,2.35294127,0,13.72549057,14.5,-8.12211323
25-Nov-2021 16:26:29.121,30.98039246,13.33333397,13.33333397,14.67039204,14.67577457,67,29.41176605,20.3921566,41,825.5,564.19677734,1.5625,0.78125,24,6.52669811,25.42780876,0,2.35294127,0,13.33333397,13.5,-7.97707558
25-Nov-2021 16:26:30.125,30.98039246,13.33333397,12.94117641,14.67039204,14.7188406,67,30.19607925,20.7843132,41,786.25,564.19677734,1.5625,0.78125,24,6.67173576,25.9893055,0,2.35294127,0,13.72549057,16,-7.83203793
25-Nov-2021 16:26:31.127,30.98039246,13.33333397,12.94117641,14.67039204,14.75876713,67,29.80392265,20.7843132,41,786.25,606.25775146,1.5625,0.78125,24,6.67173576,25.9893055,0,2.35294127,0,13.72549057,13.5,-7.83203793
25-Nov-2021 16:26:32.119,30.98039246,13.33333397,12.94117641,14.66994286,14.69327068,67,30.19607925,20.3921566,42,803.25,567.09753418,1.5625,0.78125,24,6.52669811,26.22994614,0,2.35294127,0,13.72549057,12,-7.97707558
25-Nov-2021 16:26:33.120,30.98039246,13.33333397,12.94117641,14.67039204,14.62777328,67,29.01960754,20,42,819.25,578.70056152,1.5625,0.78125,24,6.52669811,26.14973259,0,2.35294127,0,13.72549057,14,-7.97707558
25-Nov-2021 16:26:34.121,30.98039246,13.33333397,12.94117641,14.67039204,14.69371891,67,29.41176605,20.7843132,42,820,575.79980469,1.5625,0.78125,24,6.52669811,26.95186996,0,2.35294127,0,13.72549057,13.5,-7.97707558
25-Nov-2021 16:26:35.121,30.58823586,13.33333397,13.33333397,14.67039204,15.79146385,67,37.64706039,17.64705849,42,1278,575.79980469,1.5625,3.90625,24,14.50377369,123.28876495,0.39215687,1.96078432,0,13.72549057,13.5,0
25-Nov-2021 16:26:36.120,30.58823586,13.33333397,13.33333397,14.62194157,14.69371891,67,37.64706039,17.64705849,42,1278,626.56304932,-0.78125,3.90625,24,14.50377369,123.28876495,0.39215687,1.96078432,0,13.33333397,16,0
25-Nov-2021 16:26:37.124,33.33333206,13.33333397,12.94117641,14.62194157,14.69371891,67,37.64706039,8.62745094,42,1278,626.56304932,-0.78125,3.90625,24,14.50377369,123.28876495,11.37254906,21.96078491,0,13.33333397,16,0
25-Nov-2021 16:26:38.120,33.33333206,13.33333397,12.94117641,14.62194157,14.11097622,67,68.23529816,8.62745094,42,538.5,626.56304932,-0.78125,4.6875,23,7.25188684,41.31016159,11.37254906,21.96078491,3.10685587,13.33333397,16,-7.25188684
25-Nov-2021 16:26:39.120,34.50980377,21.96078491,22.74509811,14.67039204,13.4685688,67,68.23529816,43.52941132,42,538.5,984.80621338,-1.5625,4.6875,23,7.25188684,41.31016159,5.09803915,7.05882359,3.10685587,17.25490189,14.5,-7.25188684
25-Nov-2021 16:26:40.119,34.50980377,21.96078491,22.74509811,14.67039204,14.64033413,67,54.11764908,43.52941132,42,1244.75,984.80621338,-1.5625,7.8125,23,11.31294346,73.79679108,5.09803915,7.05882359,6.21371174,17.25490189,22,-3.19083023
25-Nov-2021 16:26:41.122,34.11764908,21.56862831,22.35294151,14.60175514,14.45954514,67,54.11764908,35.68627548,43,1244.75,965.95135498,-1.5625,7.8125,23,11.31294346,73.79679108,4.31372547,6.27450991,6.21371174,17.64705849,22,-3.19083023
25-Nov-2021 16:26:42.121,34.11764908,21.56862831,22.35294151,14.60175514,14.77087975,68,27.05882454,35.68627548,43,1267,965.95135498,-0.78125,6.25,23,10.29767895,53.58288574,4.31372547,6.27450991,6.21371174,13.72549057,19,-4.20609474
25-Nov-2021 16:26:43.133,30.98039246,13.33333397,12.94117641,14.63046455,14.60354805,68,21.56862831,12.15686321,43,1400.75,564.19677734,-0.78125,6.25,23,4.6412077,31.68449211,0,2.74509811,4.34959841,13.72549057,19,-9.86256599
25-Nov-2021 16:26:44.119,31.37254906,13.33333397,12.94117641,14.6690464,14.66366291,68,21.56862831,18.03921509,43,1400.75,596.10510254,1.5625,5.46875,23,5.36639643,28.55614853,0,2.74509811,4.34959841,14.11764717,21,-9.13737679
25-Nov-2021 16:26:45.121,31.37254906,13.33333397,12.94117641,14.6690464,14.23703575,68,26.66666794,18.03921509,44,1027.25,612.05926514,1.5625,4.6875,23,5.36639643,28.55614853,0,2.74509811,1.86411357,13.72549057,16,-9.13737679
25-Nov-2021 16:26:46.120,30.58823586,13.33333397,21.96078491,14.6690464,14.23703575,68,26.66666794,17.64705849,44,1027.25,612.05926514,1.5625,4.6875,23,5.36639643,28.55614853,0,1.96078432,1.86411357,13.72549057,16,-9.13737679
25-Nov-2021 16:26:47.118,30.58823586,13.33333397,21.96078491,14.56766033,14.06432152,68,57.25490189,17.64705849,44,1923.25,1138.54626465,-1.5625,4.6875,23,13.92362309,81.09625244,0,1.96078432,2.48548484,15.29411793,28,-0.5801506
25-Nov-2021 16:26:48.118,31.76470566,18.4313736,18.4313736,14.56766033,15.25268459,68,43.13725662,14.11764717,44,928.5,1138.54626465,-1.5625,4.6875,23,6.38166046,49.81283569,0,3.52941179,4.97096968,15.29411793,28,-8.12211323
25-Nov-2021 16:26:49.118,30.98039246,13.33333397,12.94117641,14.65379333,14.70089722,68,43.13725662,14.50980377,44,928.5,820.91357422,-1.5625,3.125,23,6.38166046,49.81283569,0,1.96078432,4.97096968,14.90196133,18.5,-8.12211323
25-Nov-2021 16:26:50.124,30.98039246,13.33333397,12.94117641,14.67039204,14.00196552,68,21.17647171,18.03921509,44,1219.75,609.1585083,1.5625,-1.5625,24,5.36639643,26.14973259,0,2.74509811,4.34959841,13.72549057,19,-9.13737679
25-Nov-2021 16:26:51.122,30.98039246,13.33333397,12.94117641,14.6690464,14.66994286,68,29.01960754,18.03921509,44,940.5,585.95245361,1.5625,-1.5625,24,5.36639643,29.19786072,0,18.03921509,2.48548484,14.11764717,19,-9.13737679
25-Nov-2021 16:26:52.122,31.76470566,17.25490189,21.56862831,14.67039204,15.02030563,68,32.54901886,10.1960783,44,1225.25,806.40985107,-1.5625,0,24,8.26715088,26.39037323,5.09803915,5.88235283,1.86411357,16.86274529,16.5,-6.23662281
25-Nov-2021 16:26:53.119,36.86274719,23.13725471,23.92156982,14.58201504,15.41732502,68,76.47058868,42.74509811,44,881.5,1161.75231934,-1.5625,2.34375,24,10.87783051,72.91443634,5.88235283,8.62745094,4.97096968,20.3921566,17.5,-3.62594318
25-Nov-2021 16:26:54.118,36.86274719,22.74509811,23.92156982,14.5537529,15.1113739,69,55.68627548,38.82352829,44,2524.25,1097.93566895,-2.34375,7.03125,24,9.28241539,143.18182373,5.88235283,9.8039217,8.69919682,20.7843132,28,-5.2213583
25-Nov-2021 16:26:55.121,37.25490189,20,12.94117641,14.56093121,14.29086876,69,0,17.64705849,45,3084,1184.95837402,-0.78125,6.25,23,5.65647173,53.58288574,5.49019623,10.1960783,15.53427982,21.56862831,37,-8.84730148
25-Nov-2021 16:26:56.121,32.15686417,15.29411793,15.68627453,14.69999981,16.80307579,69,0,10.5882349,45,3084,612.05926514,-0.78125,0,23,5.65647173,53.58288574,0,3.92156863,15.53427982,15.29411793,37.5,-8.84730148
25-Nov-2021 16:26:57.120,33.72549057,21.17647171,22.35294151,13.84360695,12.64896297,69,33.72549057,22.35294151,45,2064.5,601.90661621,-1.5625,-0.78125,22,5.94654703,98.10160065,4.31372547,6.27450991,16.77702141,18.03921509,37.5,-8.55722618
25-Nov-2021 16:26:58.123,33.72549057,21.17647171,22.35294151,13.84360695,14.93955708,69,27.45098114,22.35294151,45,2281.25,601.90661621,-1.5625,4.6875,22,6.81677389,85.50801849,4.31372547,6.27450991,18.64113617,18.8235302,42.5,-7.6869998
25-Nov-2021 16:26:59.122,32.15686417,13.33333397,13.33333397,14.58381081,17.05474472,69,0,10.98039246,46,2270,723.73834229,-2.34375,4.6875,22,3.48090577,34.41176224,0,3.92156863,21.12662125,18.8235302,42.5,-11.02286816
25-Nov-2021 16:27:00.126,36.86274719,22.74509811,22.35294151,14.69999981,17.65318871,69,0,42.35293961,46,2025.75,529.38775635,1.5625,0,22,8.70226383,89.03743744,5.09803915,9.8039217,22.9907341,16.47058868,34.5,-5.80150986
25-Nov-2021 16:27:01.122,36.86274719,22.74509811,22.35294151,14.10693932,14.32720661,69,31.37254906,42.35293961,46,2025.75,662.82244873,-1.5625,-4.6875,22,8.70226383,89.03743744,3.92156863,5.88235283,22.9907341,16.86274529,35.5,-5.80150986
25-Nov-2021 16:27:02.120,34.50980377,21.17647171,21.17647171,14.10693932,13.87097168,70,20.3921566,22.35294151,47,2239.75,522.13586426,-1.5625,1.5625,21,6.38166046,63.36898422,3.92156863,5.88235283,25.47621918,17.64705849,44.5,-8.12211323
25-Nov-2021 16:27:03.121,34.11764908,21.56862831,21.56862831,14.57887554,14.56137943,70,20.3921566,25.09803963,47,2239.75,522.13586426,-1.5625,1.5625,21,7.10684919,69.78609467,3.92156863,6.66666698,25.47621918,17.64705849,44.5,-7.3969245
25-Nov-2021 16:27:04.127,34.11764908,21.56862831,21.56862831,14.57887554,14.29086876,70,27.05882454,25.09803963,47,2380.75,416.25830078,-1.5625,1.5625,21,7.10684919,69.78609467,3.92156863,6.66666698,27.34033203,15.68627453,44,-7.3969245
25-Nov-2021 16:27:05.119,33.72549057,21.56862831,21.96078491,14.60848427,13.92973804,70,27.05882454,22.74509811,47,2427.75,416.25830078,-1.5625,1.5625,21,6.09158516,91.12299347,3.52941179,5.49019623,27.34033203,15.68627453,44,-8.41218853
25-Nov-2021 16:27:06.121,33.72549057,21.56862831,21.96078491,14.60848427,14.63315773,70,28.62745094,22.74509811,47,2427.75,416.25830078,-1.5625,0.78125,21,6.09158516,91.12299347,3.52941179,5.49019623,27.34033203,17.64705849,42.5,-8.41218853
25-Nov-2021 16:27:07.118,34.50980377,21.56862831,21.96078491,14.57797813,14.36309433,70,28.62745094,25.09803963,47,2470.5,578.70056152,-1.5625,0,21,7.10684919,95.77539825,4.31372547,7.05882359,27.96170425,17.64705849,41.5,-7.3969245
25-Nov-2021 16:27:08.118,34.90196228,22.35294151,22.35294151,14.57438946,14.57349205,70,32.94117737,29.80392075,47,2457.75,806.40985107,-2.34375,0.78125,21,7.68700027,108.04812622,4.70588255,7.05882359,27.96170425,19.2156868,39.5,-6.81677341
25-Nov-2021 16:27:09.118,34.90196228,21.96078491,21.96078491,14.57573414,14.18948269,70,37.64706039,27.84313774,48,2451.75,774.50152588,-1.5625,1.5625,21,7.97707558,110.13368225,4.31372547,7.45098066,27.96170425,18.03921509,38,-6.52669811
25-Nov-2021 16:27:10.121,35.68627548,21.96078491,21.96078491,14.56855679,14.78882408,71,35.68627548,27.84313774,48,2451.75,855.72265625,-2.34375,-0.78125,20,7.3969245,112.62032318,4.70588255,8.23529434,27.96170425,19.2156868,38,-7.10684919
25-Nov-2021 16:27:11.119,35.68627548,20,20.3921566,14.56855679,13.76285648,71,33.33333206,18.03921509,48,2413.25,1083.43188477,-2.34375,-3.125,20,6.38166046,86.31015778,4.70588255,8.23529434,27.34033203,20,39,-8.12211323
25-Nov-2021 16:27:12.118,35.29411697,22.74509811,23.13725471,14.53580952,14.41064835,71,41.5686264,33.33333206,48,2436.25,983.35583496,-2.34375,-1.5625,20,10.00760365,154.17111206,5.49019623,9.01960754,27.34033203,19.6078434,34.5,-4.49617004
25-Nov-2021 16:27:13.119,34.90196228,22.74509811,22.35294151,14.56900597,14.26081276,71,38.82352829,39.60784149,48,2447.5,942.74530029,-2.34375,0,20,8.99234009,130.50802612,4.31372547,7.45098066,27.34033203,18.8235302,34.5,-5.5114336
25-Nov-2021 16:27:14.123,35.68627548,22.35294151,21.56862831,14.5694561,14.64482021,71,33.33333206,28.62745094,48,2432.25,844.11962891,-2.34375,-3.125,20,7.54196215,107.16577148,4.70588255,7.84313726,27.34033203,18.8235302,38,-6.96181107
25-Nov-2021 16:27:15.121,35.29411697,21.96078491,21.96078491,14.57797813,14.27337265,71,33.72549057,30.58823586,48,2405,732.44055176,-2.34375,-1.5625,20,8.26715088,106.28342438,4.70588255,8.23529434,27.34033203,18.4313736,39.5,-6.23662281
25-Nov-2021 16:27:16.124,34.90196228,21.96078491,21.96078491,14.57304382,14.53760433,71,32.54901886,30.58823586,48,2363.75,858.62341309,-2.34375,-1.5625,20,8.26715088,118.47593689,4.31372547,7.05882359,26.71896172,18.8235302,29.5,-6.23662281
25-Nov-2021 16:27:17.122,32.94117737,20.3921566,20.3921566,14.58829689,14.48915386,72,29.41176605,24.70588303,49,2290,565.64715576,-1.5625,-4.6875,20,7.25188684,85.10694885,2.74509811,5.09803915,26.09758949,16.86274529,41,-7.25188684
25-Nov-2021 16:27:18.123,33.33333206,20.3921566,20.3921566,14.5891943,14.51876163,72,22.74509811,18.8235302,49,2205.25,424.96057129,-1.5625,-4.6875,20,5.80150938,63.52941132,2.74509811,5.09803915,24.85484695,16.07843208,44,-8.70226479
25-Nov-2021 16:27:19.122,33.33333206,20.7843132,20.3921566,14.5891943,14.61566067,72,29.41176605,22.35294151,49,2061.25,516.33435059,-1.5625,-4.6875,20,5.80150938,63.36898422,2.74509811,5.09803915,23.61210442,16.47058868,38.5,-8.70226479
25-Nov-2021 16:27:20.117,31.37254906,17.64705849,16.86274529,14.69999981,14.80048752,72,15.68627453,12.54901981,49,1954.5,610.60888672,0,0,20,4.931283,38.26203156,0,3.13725495,22.36936378,14.50980377,30,-9.57249069
25-Nov-2021 16:27:21.118,31.37254906,16.07843208,12.94117641,14.69999981,20.3197155,72,16.07843208,11.37254906,49,1842.5,639.61645508,1.5625,0,20,3.62594342,33.93048096,0,3.13725495,21.12662125,14.11764717,37,-10.87783051
25-Nov-2021 16:27:22.119,31.37254906,13.33333397,12.94117641,14.69999981,17.24316025,73,21.17647171,20,50,1145.5,603.35699463,1.5625,0,21,5.65647173,28.79679108,0,3.13725495,18.64113617,13.72549057,16,-8.84730148
25-Nov-2021 16:27:23.121,30.98039246,13.33333397,12.94117641,14.67039204,13.08949566,73,22.74509811,15.68627453,50,1066.75,619.31115723,1.5625,-3.125,21,5.22135878,27.19251442,0,2.35294127,16.15565109,13.72549057,20.5,-9.28241539
25-Nov-2021 16:27:24.120,30.58823586,13.33333397,12.94117641,14.66994286,14.52549171,73,27.45098114,18.43137169,50,889,587.40283203,1.5625,-5.46875,21,5.65647173,26.14973259,0,1.96078432,13.67016602,13.33333397,20,-8.84730148
25-Nov-2021 16:27:25.120,30.58823586,13.33333397,12.94117641,14.67039204,15.35137939,73,27.84313774,20.7843132,50,826.75,596.10510254,1.5625,-3.90625,21,6.52669811,25.02673721,0,1.96078432,9.94193935,13.33333397,14,-7.97707558
25-Nov-2021 16:27:26.121,30.58823586,13.33333397,12.94117641,14.67039204,15.37470722,73,28.23529434,20.7843132,50,795.5,532.28851318,-1.5625,-2.34375,21,6.52669811,24.46524048,0,1.96078432,8.07782555,15.68627453,15.5,-7.97707558
25-Nov-2021 16:27:27.125,30.98039246,19.2156868,20.3921566,14.67039204,14.89828491,73,58.03921509,27.84313774,50,880,532.28851318,-1.5625,0.78125,21,7.3969245,45.72192383,0,2.35294127,6.83508301,18.8235302,12.5,-7.10684919
25-Nov-2021 16:27:28.126,36.07843018,23.13725471,23.92156982,14.64078331,15.01851177,73,66.66666412,49.41176605,50,1047,1154.50036621,-1.5625,4.6875,21,12.90835857,84.78609467,5.88235283,9.01960754,8.69919682,18.8235302,16,-1.59541512
25-Nov-2021 16:27:29.121,36.86274719,22.74509811,23.13725471,14.5694561,14.69371891,73,58.03921509,43.52941132,50,1335.25,1022.51605225,-1.5625,6.25,21,12.18317032,89.03743744,5.49019623,9.4117651,10.56331062,19.6078434,22.5,-2.32060337
25-Nov-2021 16:27:30.123,37.25490189,23.13725471,23.92156982,14.54298782,14.54881954,73,60,45.49019623,50,1595.5,1163.20263672,-2.34375,8.59375,21,11.89309406,107.64705658,5.88235283,10.1960783,13.04879475,21.56862831,24.5,-2.61067963
25-Nov-2021 16:27:31.123,37.25490189,23.13725471,23.92156982,14.5506134,14.13385582,73,60.39215851,45.49019623,50,1932.5,1235.72155762,-2.34375,10.15625,21,11.45798111,135,6.27450991,10.1960783,15.53427982,21.56862831,26,-3.04579258
25-Nov-2021 16:27:32.121,37.25490189,23.13725471,23.92156982,14.53939819,13.90551472,73,50.19607925,41.17647171,50,2389,1308.24035645,-0.78125,6.25,20,10.29767895,156.01605225,6.27450991,10.58823586,19.26250648,21.56862831,32.5,-4.20609474
25-Nov-2021 16:27:33.122,37.64706039,23.13725471,23.92156982,14.53715515,14.8009367,73,44.70588303,41.17647171,50,2639.25,1118.2409668,-2.34375,2.34375,20,8.26715088,144.22459412,6.27450991,10.58823586,21.12662125,21.17647171,36,-6.23662281
25-Nov-2021 16:27:34.123,32.15686417,14.90196133,15.68627453,14.69999981,13.85796165,74,0,10.98039246,50,2417,562.74639893,-0.78125,2.34375,20,3.33586788,37.54010391,0,4.70588255,21.74799156,15.68627453,38.5,-11.16790581
25-Nov-2021 16:27:35.124,37.25490189,23.52941132,22.74509811,13.6991539,14.92923927,74,55.29411697,47.05882263,50,1971.25,839.76849365,-0.78125,-0.78125,20,11.02286816,137.48661804,5.49019623,10.58823586,22.9907341,21.17647171,26.5,-3.48090553